Regional Weather Roundup
Issued by NWS

Home | Current Version | Previous Version | Text Only | Print | Product List | Glossary On
Versions: 1 2 3 4 5 6 7 8 9 10 11 12 13 14 15 16 17 18 19 20 21 22 23 24 25 26 27 28 29 30 31 32 33 34 35 36 37 38 39 40 41 42 43 44 45 46 47 48 49 50
000
ASUS44 KLUB 031210
RWRTX
WEST TEXAS WEATHER ROUNDUP
NATIONAL WEATHER SERVICE LUBBOCK TX
600 AM CST SAT DEC 03 2016

NOTE: "FAIR" INDICATES FEW OR NO CLOUDS BELOW 12,000 FEET WITH NO
SIGNIFICANT WEATHER AND/OR OBSTRUCTIONS TO VISIBILITY.

TXZ004-006>008-010-012-014-016-OKZ002-031300-
TEXAS PANHANDLE/OKLAHOMA PANHANDLE

CITY           SKY/WX    TMP DP  RH WIND       PRES   REMARKS
AMARILLO       CLOUDY    33  33 100 N12       30.11F FOG     WCI  24
BORGER         CLOUDY    35  34  96 N8        30.14F FOG     WCI  29
CANADIAN       DRIZZLE   38  38  98 CALM      30.15S
DALHART        CLOUDY    32  31  96 N9        30.12F WCI  24
DUMAS          CLOUDY    31  31  98 N8        30.11F WCI  24
GUYMON         CLOUDY    33  33 100 NE8       30.14F FOG     WCI  26
HEREFORD       CLOUDY    34  34 100 NE10G17   30.10S WCI  26
PAMPA          DRIZZLE   37  36  96 NE6       30.14S WCI  32
PERRYTON       CLOUDY    35  34  96 N6        30.14F WCI  30
$$

TXZ026-029-035-045-048-031300-
SOUTHERN PANHANDLE/SOUTH PLAINS/ROLLING PLAINS

CITY           SKY/WX    TMP DP  RH WIND       PRES   REMARKS
CHILDRESS      RAIN      43  41  93 E7        30.15R FOG
SEMINOLE       CLOUDY    41  41 100 E9        30.03R
LUBBOCK        LGT RAIN  40  39  97 NE10      30.07R WCI  33
PLAINVIEW      LGT RAIN  38  37  99 E9        30.07F WCI  31
SNYDER         RAIN      42  41  97 NE18      30.05F
$$

TXZ052-054-060>062-072-078-127-140-154-169-031300-
PERMIAN BASIN/CONCHO VALLEY/BIG COUNTRY/EDWARDS PLATEAU

CITY           SKY/WX    TMP DP  RH WIND       PRES   REMARKS
ABILENE        RAIN      44  44 100 E14       30.03F FOG
BIG SPRING     CLOUDY    43  42  96 NE15G21   30.04S
BROWNWOOD      LGT RAIN  46  45  93 E8        30.03F
JUNCTION       LGT RAIN  48  47  96 E13G20    29.94F
MIDLAND        CLOUDY    45  42  89 NE17      30.00R FOG
ODESSA         CLOUDY    44  41  89 NE17G24   29.99R FOG
SAN ANGELO     LGT RAIN  47  45  93 NE17      29.96F
SONORA         CLOUDY    48  48 100 NE6G14    29.95R
SWEETWATER     CLOUDY    44  44 100 NE9       30.06R
WINK           LGT RAIN  44  44 100 NE10      30.00R FOG
$$

TXZ055-058-074-075-080-082-031300-
FAR WEST/SOUTHWEST MOUNTAINS/TRANS PECOS

CITY           SKY/WX    TMP DP  RH WIND       PRES   REMARKS
ALPINE         CLOUDY    41  41  98 E9        30.03R VSB 1
DRYDEN           N/A     53  50  89 N9        29.90R
EL PASO        CLOUDY    43  36  76 N16       29.92F
FORT STOCKTON  CLOUDY    43  43 100 NW12      29.97S
GUADALUPE PASS LGT RAIN  35  35 100 NE35      29.92F VSB 1/4 WCI  21
MARFA          LGT RAIN  42  41  96 NE10      29.95S
PECOS          LGT RAIN  43  42  97 NW15      30.00F
PRESIDIO       CLOUDY    54  47  78 N6        29.88R
$$

TXZ014-016-019-021>030-083-031300
TEXAS TECH WEST TEXAS MESONET/TEXAS PANHANDLE/NORTHERN SOUTH PLAINS

CITY           SKY/WX    TMP DP  RH WIND       PRES   REMARKS
ABERNATHY 5ENE LGT RAIN  39  39  98 NE9       30.10S WCI  33
AMARILLO 9NNE    N/A     33  33 100 NE6       30.14F WCI  27
AMARILLO 7SSE    N/A     33  32  96 N8        30.12F WCI  26
AMHERST 1NE      N/A     36  36  99 N12       30.09S WCI  28
BOOTLEG 11WNW    N/A     30  29  96 N9        30.12S WCI  22
CANADIAN 6E      N/A     37  37  99 NE3       30.15R
CAPROCK CYN SP   N/A     40  40 100 NE5       30.14S
CHILDRESS 2NNE   N/A     42  41  98 NE6       30.16R
CLARENDON 2WSW   N/A     40  39  96 E8        30.14S WCI  34
CLAUDE 12SW      N/A     37  37  99 NE7       30.11F WCI  31
DIMMITT 2NE      N/A     32  32  99 N10       30.10S WCI  24
FLOYDADA 2NNE  LGT RAIN  39  38  99 NE9       30.09S WCI  33
FRIONA 2NE       N/A     32  31  99 N15       30.11F WCI  21
GOODLETT 3W      N/A     43  42  95 NE8       30.14S
HART 3N          N/A     35  35  99 N13       30.09F WCI  27
HEREFORD 2NW     N/A     32  32  99 N12       30.12F WCI  23
MCLEAN 1E        N/A     40  39  99 E8        30.13R WCI  34
MEMPHIS 1NE    LGT RAIN  42  41  98 E7        30.17R
MULESHOE 2SSW    N/A     34  33  98 N10G16    30.10S WCI  26
OLTON 6S         N/A     37  36  96 N13       30.09F WCI  29
PALO DURO SP     N/A     34  33  96 N7        30.13F WCI  28
PAMPA 2E         N/A     36  35  99 N5        30.15R WCI  32
PLAINVIEW 1S     N/A     38  38  99 NE8       30.09F WCI  33
SILVERTON 7ESE LGT RAIN  39  38  99 NE9       30.10F WCI  33
TULIA 2ENE     LGT RAIN  37  36  99 NE8       30.11F WCI  30
TURKEY 2WSW      N/A     41  40  99 NE9       30.13S
UMBARGER 3NNE    N/A     32  32  98 N12       30.11F WCI  23
$$

TXZ033>036-039>041-045>048-031300
TEXAS TECH WEST TEXAS MESONET/SOUTH PLAINS

CITY           SKY/WX    TMP DP  RH WIND       PRES   REMARKS
AIKEN 3WSW     LGT RAIN  39  39 100 NE10      30.11S WCI  32
ANDREWS 2NE      N/A     42  40  95 NE12      30.04R
ANTON 6SSW       N/A     38  38  99 NE9       30.08S WCI  32
BROWNFIELD 2S    N/A     39  38  96 NE14      30.05S WCI  31
DENVR CTY 7WNW   N/A     37  37  99 N15G22    30.04R WCI  28
GAIL 2ESE        N/A     42  40  95 NE13      30.06R
LAMESA 2SE       N/A     41  40  97 NE13G18   30.04S
LEVELLAND 4S     N/A     38  37  94 NE13      30.07S WCI  30
LUBBOCK 3WNW     N/A     40  40  98 NE8       30.09S WCI  35
MORTON 1ENE      N/A     37  36  95 N14       30.08S WCI  29
ODONNELL 1N      N/A     40  40  99 NE17      30.05S WCI  31
PLAINS 3N        N/A     38  37  99 N14G21    30.05F WCI  29
RALLS 1SE        N/A     40  39  95 NE10      30.09F WCI  34
REESE CENTER   LGT RAIN  39  38  99 NE10      30.08S WCI  32
SEAGRAVES 1SW    N/A     40  40  98 NE7       30.04S
SEMINOLE 2NNE    N/A     41  40  97 NE12      30.03S
SLATON 2NE       N/A     40  39  99 NE10      30.08R WCI  33
SNYDER 3E      LGT RAIN  41  41  99 N14G21    30.07R
SUNDOWN 8SW      N/A     38  37  98 NE15      30.05S WCI  29
TAHOKA 3NNE      N/A     40  39  98 NE13      30.07R WCI  32
WOLFFORTH 6SSW   N/A     40  40  99 NE8       30.08R WCI  34
$$

TXZ031-032-036>038-042>044-031300-
TEXAS TECH WEST TEXAS MESONET/ROLLING PLAINS

CITY           SKY/WX    TMP DP  RH WIND       PRES   REMARKS
ASPERMONT 3NE    N/A     43  42  95 NE8       30.11R
FLUVANNA 3WNW  LGT RAIN  41  40  98 NE16      30.05F
GRAHAM 5SSW      N/A     40  39  97 NE15G21   30.05S WCI  32
GUTHRIE 10WSW  LGT RAIN  42  41  96 N7G15     30.13R
HASKELL 1NW      N/A     43  43  98 NE14      30.09F
JAYTON 1SSE    RAIN      43  42  95 N8        30.13R
KNOX CITY 3NW    N/A     44  41  89 NE14      30.10F
LK A HENRY 1NW   N/A     42  40  92 NE10      30.08F
NORTHFIELD 1S  LGT RAIN  42  42  99 E8        30.14R
ODELL 4ENE       N/A     45  44  97 NE8       30.15S
PADUCAH 10SW   LGT RAIN  42  42  99 E9        30.14R
POST 1NE         N/A     42  40  95 NE12      30.08R
RRING SPRGS 3N RAIN      41  41  99 E9        30.13R
SEYMOUR 3NW    LGT RAIN  44  42  90 NE12      30.13S
SPUR 1W        RAIN      41  40  97 NE12      30.11R
WEINERT 2NNE     N/A     43  41  93 NE13G18   30.10F
WHITE RVR 6NE  LGT RAIN  41  39  95 NE10      30.10F
$$

TXZ052-054-060>062-072-078-127-140-154-169-031300-
TEXAS TECH WEST TEXAS MESONET/PERMIAN BASIN/
CONCHO VALLEY/BIG COUNTRY/EDWARDS PLATEAU

CITY           SKY/WX    TMP DP  RH WIND       PRES   REMARKS
COYANOSA 2N      N/A     44  44 100 NW10      30.01R
JUNCTION 1SSW    N/A     47  47  98 NE12      29.96F
MERTZON 3NNE     N/A     45  44  97 NE12      29.99R
SAN ANGELO 7NW   N/A     46  44  92 E10       30.01R
STRLNG CT 4WSW   N/A     44  43  95 NE8       30.02R
ST LAWRNCE 5SW   N/A     45  43  94 NE17      29.98F
SWEETWATR 11SW   N/A     43  42  99 NE10      30.04R
WALL 1E          N/A     45  43  91 NE18      30.00F
$$

TXZ055-058-074-075-080-082-031300-
TEXAS TECH WEST TEXAS MESONET/FAR WEST/SOUTHWEST MOUNTAINS/TRANS PECOS

CITY           SKY/WX    TMP DP  RH WIND       PRES   REMARKS
PRSMN GAP BBNP   N/A     56  51  83 N14       29.90R
GUADLPE MTN NP   N/A     35  35  97 NE5       30.00F WCI  31
$$



USA.gov is the U.S. government's official web portal to all federal, state and local government web resources and services.